Time,TemperatureF,DewpointF,PressureIn,WindDirection,WindDirectionDegrees,WindSpeedMPH,WindSpeedGustMPH,Humidity,HourlyPrecipIn,Conditions,Clouds,dailyrainin,SoftwareType,DateUTC
2013-06-30 00:00:00,96.0,-99.9,-100.00,WNW,285,4.0,10.0,-999,-99.99,,,-99.99,,2013-06-30 07:00:00,
2013-06-30 00:53:00,96.0,-99.9,-100.00,WNW,285,4.0,10.0,-999,-99.99,,,-99.99,,2013-06-30 07:53:00,
2013-06-30 03:00:00,90.0,-99.9,-100.00,West,270,5.0,8.0,-999,-99.99,,,-99.99,,2013-06-30 10:00:00,
2013-06-30 03:53:00,90.0,-99.9,-100.00,West,270,5.0,8.0,-999,-99.99,,,-99.99,,2013-06-30 10:53:00,
2013-06-30 04:50:00,88.0,-99.9,-100.00,West,279,2.0,4.0,-999,-99.99,,,-99.99,,2013-06-30 11:50:00,
2013-06-30 05:43:00,88.0,-99.9,-100.00,West,279,2.0,4.0,-999,-99.99,,,-99.99,,2013-06-30 12:43:00,
2013-06-30 06:22:00,88.0,-99.9,-100.00,SSE,161,0.0,4.0,-999,-99.99,,,-99.99,,2013-06-30 13:22:00,
2013-06-30 06:44:00,89.0,-99.9,-100.00,NNW,329,0.0,2.0,-999,-99.99,,,-99.99,,2013-06-30 13:44:00,
2013-06-30 06:53:00,89.0,-99.9,-100.00,NNW,329,0.0,2.0,-999,-99.99,,,-99.99,,2013-06-30 13:53:00,
2013-06-30 07:12:00,87.0,-99.9,-100.00,NW,324,1.0,2.0,-999,-99.99,,,-99.99,,2013-06-30 14:12:00,
2013-06-30 07:22:00,87.0,-99.9,-100.00,NW,324,1.0,2.0,-999,-99.99,,,-99.99,,2013-06-30 14:22:00,
2013-06-30 10:12:00,101.0,-99.9,-100.00,SSE,153,2.0,9.0,-999,-99.99,,,-99.99,,2013-06-30 17:12:00,
2013-06-30 10:24:00,101.0,-99.9,-100.00,SSE,153,2.0,9.0,-999,-99.99,,,-99.99,,2013-06-30 17:24:00,
2013-06-30 11:30:00,106.0,-99.9,-100.00,East,99,10.0,13.0,-999,-99.99,,,-99.99,,2013-06-30 18:30:00,
2013-06-30 13:40:00,109.0,-99.9,-100.00,SE,142,9.0,11.0,-999,-99.99,,,-99.99,,2013-06-30 20:40:00,
2013-06-30 13:52:00,108.0,-99.9,-100.00,East,90,4.0,11.0,-999,-99.99,,,-99.99,,2013-06-30 20:52:00,
2013-06-30 14:11:00,110.0,-99.9,-100.00,ESE,113,2.0,13.0,-999,-99.99,,,-99.99,,2013-06-30 21:11:00,
2013-06-30 14:30:00,112.0,-99.9,-100.00,East,93,5.0,11.0,-999,-99.99,,,-99.99,,2013-06-30 21:30:00,
2013-06-30 14:34:00,109.0,-99.9,-100.00,SE,142,9.0,11.0,-999,-99.99,,,-99.99,,2013-06-30 21:34:00,
2013-06-30 14:53:00,110.0,-99.9,-100.00,ESE,111,8.0,10.0,-999,-99.99,,,-99.99,,2013-06-30 21:53:00,
2013-06-30 15:01:00,110.0,-99.9,-100.00,ESE,111,8.0,10.0,-999,-99.99,,,-99.99,,2013-06-30 22:01:00,
2013-06-30 15:11:00,110.0,-99.9,-100.00,ESE,111,8.0,10.0,-999,-99.99,,,-99.99,,2013-06-30 22:11:00,
2013-06-30 18:02:00,114.0,-99.9,-100.00,WNW,301,22.0,31.0,-999,-99.99,,,-99.99,,2013-07-01 01:02:00,
2013-06-30 18:12:00,114.0,-99.9,-100.00,WNW,301,22.0,31.0,-999,-99.99,,,-99.99,,2013-07-01 01:12:00,
2013-06-30 21:11:00,101.0,-99.9,-100.00,West,263,18.0,26.0,-999,-99.99,,,-99.99,,2013-07-01 04:11:00,
2013-06-30 21:32:00,98.0,-99.9,-100.00,WNW,288,15.0,22.0,-999,-99.99,,,-99.99,,2013-07-01 04:32:00,
2013-06-30 21:43:00,98.0,-99.9,-100.00,WNW,288,15.0,22.0,-999,-99.99,,,-99.99,,2013-07-01 04:43:00,
2013-06-30 21:53:00,98.0,-99.9,-100.00,WNW,288,15.0,22.0,-999,-99.99,,,-99.99,,2013-07-01 04:53:00,
2013-06-30 22:02:00,97.0,-99.9,-100.00,West,279,10.0,18.0,-999,-99.99,,,-99.99,,2013-07-01 05:02:00,
2013-06-30 22:11:00,97.0,-99.9,-100.00,West,279,10.0,18.0,-999,-99.99,,,-99.99,,2013-07-01 05:11:00,
2013-06-30 22:22:00,97.0,-99.9,-100.00,West,279,10.0,18.0,-999,-99.99,,,-99.99,,2013-07-01 05:22:00,
2013-06-30 22:42:00,97.0,-99.9,-100.00,West,276,14.0,19.0,-999,-99.99,,,-99.99,,2013-07-01 05:42:00,
2013-06-30 22:52:00,97.0,-99.9,-100.00,West,278,15.0,18.0,-999,-99.99,,,-99.99,,2013-07-01 05:52:00,
2013-06-30 23:02:00,97.0,-99.9,-100.00,West,278,15.0,18.0,-999,-99.99,,,-99.99,,2013-07-01 06:02:00,
2013-06-30 23:30:00,96.0,-99.9,-100.00,West,279,10.0,16.0,-999,-99.99,,,-99.99,,2013-07-01 06:30:00,
2013-06-30 23:43:00,96.0,-99.9,-100.00,WSW,257,11.0,18.0,-999,-99.99,,,-99.99,,2013-07-01 06:43:00,
2013-06-30 23:53:00,96.0,-99.9,-100.00,WSW,257,11.0,18.0,-999,-99.99,,,-99.99,,2013-07-01 06:53:00,